Regional Weather Roundup
Issued by NWS

Home | Current Version | Previous Version | Graphics & Text | Print | Product List | Glossary Off
Versions: 1 2 3 4 5 6 7 8 9 10 11 12 13 14 15 16 17 18 19 20 21 22 23 24 25 26 27 28 29 30 31 32 33 34 35 36 37 38 39 40 41 42 43 44 45 46 47 48 49 50

000
ASUS43 KMKX 210600
RWRWI

WISCONSIN REGIONAL WEATHER ROUNDUP
NATIONAL WEATHER SERVICE MILWAUKEE/SULLIVAN WI
100 AM CDT MON AUG 21 2017

NOTE: "FAIR" INDICATES FEW OR NO CLOUDS BELOW 12,000 FEET WITH NO
SIGNIFICANT WEATHER AND/OR OBSTRUCTIONS TO VISIBILITY.

WIZ001-002-006>008-014>016-023>028-210700-
NORTHWEST WISCONSIN

CITY           SKY/WX    TMP DP  RH WIND       PRES   REMARKS
SUPERIOR ARPT    N/A     55  54  99 SW5       30.03R
ASHLAND        CLEAR     55  54  96 S6        30.04R
6HR MIN TEMP:  55; 6HR MAX TEMP:  76;

HAYWARD        PTCLDY    57  55  93 CALM      30.06S
6HR MIN TEMP:  56; 6HR MAX TEMP:  73;

SIREN          CLEAR     58  57  97 CALM      30.06R
CUMBERLAND     CLOUDY    61  59  94 CALM      30.05S
RICE LAKE      CLOUDY    66  63  90 NW3       30.06R
CHETEK         CLOUDY    69  64  82 CALM      30.04S
LADYSMITH      CLOUDY    68  65  90 CALM      30.06R
EAU CLAIRE     CLEAR     68  66  93 N5        30.01R
6HR MIN TEMP:  68; 6HR MAX TEMP:  80;

MENOMONIE      CLEAR     69  65  86 SW3       30.02F
NEW RICHMOND   CLEAR     62  62  98 N3        30.04S
OSCEOLA        CLOUDY    61  61 100 CALM      30.06F
$$

WIZ003>005-009-010-017-018-210700-
NORTH CENTRAL WISCONSIN

CITY           SKY/WX    TMP DP  RH WIND       PRES   REMARKS
MANITOWISH WTR CLOUDY    64  64 100 CALM      30.04S
ARBOR VITAE    CLOUDY    69  63  82 CALM      30.05R
WOODRUFF       CLOUDY    69  63  82 CALM      30.05R
RHINELANDER    CLOUDY    68  67  96 CALM      30.06R
6HR MIN TEMP:  67; 6HR MAX TEMP:  76;

EAGLE RIVER    CLOUDY    66  64  93 CALM      30.05R
LAND O LAKES   CLOUDY    67  60  76 NW3       30.06R
PHILLIPS       PTCLDY    67  65  93 CALM      30.04S
TOMAHAWK         N/A     66  64  92 CALM      30.06R
MEDFORD        CLOUDY    65  64  97 CALM      30.05R
MERRILL        MOCLDY    64  64 100 N7        30.05R
$$

WIZ029-030-035-036-043>047-210700-
CENTRAL WISCONSIN

CITY           SKY/WX    TMP DP  RH WIND       PRES   REMARKS
WAUSAU         PTCLDY    69  67  93 CALM      30.02S
6HR MIN TEMP:  68; 6HR MAX TEMP:  78;

MOSINEE        CLOUDY    66  64  94 CALM      30.04F
MARSHFIELD     PTCLDY    66  64  93 CALM      30.04R FOG
6HR MIN TEMP:  66; 6HR MAX TEMP:  78; 6HR PCP: TRACE;

STEVENS POINT  PTCLDY    67  66  99 S3        30.04S
WAUPACA        CLOUDY    71  69  95 S3        30.03S
WAUTOMA        CLOUDY    66  65  96 NW5       30.04F
6HR MIN TEMP:  65; 6HR MAX TEMP:  78;

WISC RAPIDS    PTCLDY    67  66  97 SW3       30.04S FOG
6HR MIN TEMP:  66; 6HR MAX TEMP:  78;

CAMP DOUGLAS   CLEAR     65  65 100 CALM      30.03R
6HR MIN TEMP:  65; 6HR MAX TEMP:  79; 6HR PCP: TRACE;

$$

WIZ011>013-019>022-031-037>040-048>050-210700-
NORTHEAST WISCONSIN

CITY           SKY/WX    TMP DP  RH WIND       PRES   REMARKS
ANTIGO         MOCLDY    65  65  99 CALM      30.06R
SHAWANO        CLOUDY    73  67  81 SW3       30.02R
OCONTO         PTCLDY    71  67  85 SW3       30.01S
STURGEON BAY   PTCLDY    73  68  84 SW9       30.02S
6HR MIN TEMP:  71; 6HR MAX TEMP:  73;

GREEN BAY      CLOUDY    72  70  93 SW6       30.02F
6HR MIN TEMP:  71; 6HR MAX TEMP:  77;

MANITOWOC      NOT AVBL
APPLETON       MOCLDY    68  66  94 SW6       30.02F
CLINTONVILLE   MOCLDY    70  66  88 SW5       30.02F
OSHKOSH        CLOUDY    69  65  86 CALM      30.03S
6HR MIN TEMP:  69; 6HR MAX TEMP:  77;

$$

WIZ032>034-041-042-053>061-210700-
SOUTHWEST WISCONSIN

CITY           SKY/WX    TMP DP  RH WIND       PRES   REMARKS
LA CROSSE      CLEAR     73  68  84 CALM      30.02R
6HR MIN TEMP:  71; 6HR MAX TEMP:  86; 6HR PCP: TRACE;

SPARTA         CLEAR     63  63 100 CALM      30.04R
VIROQUA        CLEAR     67  65  93 CALM      30.05S
BOSCOBEL       PTCLDY    62  61  96 CALM      30.03F FOG
6HR MIN TEMP:  62; 6HR MAX TEMP:  82;

PRAIRIE DU CHI CLEAR     65  63  93 CALM      30.03F
PLATTEVILLE    CLEAR     65  65 100 E3        30.05F
$$

WIZ056-057-062-063-064-067-068-210700-
SOUTH CENTRAL WISCONSIN

CITY           SKY/WX    TMP DP  RH WIND       PRES   REMARKS
REEDSBURG      CLEAR     65  65 100 CALM      30.04F
BARABOO/DELLS  CLEAR     65  64  94 S5        30.04F
LONE ROCK      FOG       62  62 100 SE3       30.03F VSB 1/4
MINERAL POINT  CLEAR     68  68 100 CALM      30.06F
MADISON        CLEAR     65  64  97 CALM      30.04F FOG
6HR MIN TEMP:  64; 6HR MAX TEMP:  78;

MIDDLETON      CLEAR     63  63 100 CALM      30.06S
WATERTOWN      CLEAR     63  63 100 CALM      30.06R FOG
MONROE         CLEAR     70  64  83 CALM      30.06S
JANESVILLE     MOCLDY    68  68 100 CALM      30.05S
$$

WIZ051-052-058>065-066-070>072-210700-
SOUTHEAST WISCONSIN

CITY           SKY/WX    TMP DP  RH WIND       PRES   REMARKS
MILWAUKEE      PTCLDY    70  66  87 CALM      30.05R
6HR MIN TEMP:  70; 6HR MAX TEMP:  79;

WAUKESHA       PTCLDY    63  63 100 CALM      30.07R FOG
MILWAUKEE/TIMM CLEAR     64  61  88 CALM      30.06R
RACINE         CLOUDY    71  68  90 CALM      30.06S
6HR MIN TEMP:  68; 6HR MAX TEMP:  78;

KENOSHA        CLOUDY    71  67  87 E5        30.05S
6HR MIN TEMP:  70; 6HR MAX TEMP:  77;

FOND DU LAC    CLEAR     67  64  90 CALM      30.05S FOG
6HR MIN TEMP:  65; 6HR MAX TEMP:  77;

SHEBOYGAN      CLEAR     64  64 100 W3        30.04S FOG
6HR MIN TEMP:  64; 6HR MAX TEMP:  76;

WEST BEND      CLEAR     63  63 100 CALM      30.06R FOG
JUNEAU         CLEAR     65  64  97 CALM      30.07S FOG
$$

LSZ147-162-210700-
LAKE SUPERIOR

STATION/POSITION TIME  TEMP    WIND        PRES    WAVE
                       AIR SEA DIR/SP/G            HT/PER
                 (UTC) (F)     (DEG/KT/KT) (MB)    (FT/S)
W MID LAKE BUOY  0450   64 60  280/ 10/ 12 1014.7R   1/ 4
DEVILS ISLAND    0500   66     270/ 12/ 13 1015.7R
PORT WING        0440          160/  4/  5 1016.3
SAXON HARBOR     0540   62     200/  5/  7 1016.3R
$$

LMZ867-665-643>646-210700-
LAKE MICHIGAN

STATION/POSITION TIME  TEMP    WIND        PRES    WAVE
                       AIR SEA DIR/SP/G            HT/PER
                 (UTC) (F)     (DEG/KT/KT) (MB)    (FT/S)
S GREEN BAY BUOY 0530   73 71  210/ 10/ 12 1015.9R
N MID LAKE BUOY  0450   69 67  210/ 16/ 17 1015.8R   4/ 5
NORTHPORT PIER   0540   73     240/  4/ 10 1015.6S
KEWAUNEE LAKESHO 0530   72     220/  5/  8 1015.9R
SHEBOYGAN LAKESH 0500   73     250/  6/  7 1016.7R
PORT WASHINGTON  0530   71     320/  2/  3 1017.9S
ATWATER BUOY     0409   73 70   CALM  /  2 1017.3R
MILWAUKEE LAKESH 0530   72     180/  1/  1   N/A
S MID LAKE BUOY  0450   74 72  200/  6/  8 1017.3R   0
KENOSHA   LAKESH 0500   74      CALM  /  3 1017.3
$$

TC  - TEMPERATURE IN CELSIUS
VSB - VISIBILITY IN STATUTE MILES
WCI - WIND CHILL INDEX
HX  - HEAT INDEX




USA.gov is the U.S. government's official web portal to all federal, state and local government web resources and services.